GW1065 Weather Reports


time (UTC)temp
C
wind
direction
speed
KPH
gust
KPH
rain 1hr
cm
rain 24hr
cm
rain mn
cm
humidity
%
barometer
mb
20260507213047 20 267 1.6 16.1 0.00 0.00 0.00 43 1011.2
20260507211547 20 295 3.2 17.7 0.00 0.00 0.00 45 1011.3
20260507210046 20 0 3.2 20.9 0.00 0.00 0.00 46 1011.5
20260507204548 20 172 3.2 17.7 0.00 0.00 0.00 47 1011.8
20260507203045 20 190 4.8 19.3 0.00 0.00 0.00 45 1012.0
20260507201544 19 129 4.8 19.3 0.00 0.00 0.00 47 1012.4
20260507200047 19 184 3.2 16.1 0.00 0.00 0.00 46 1012.5
20260507194545 19 134 6.4 24.1 0.00 0.00 0.00 47 1012.7
20260507193051 19 130 1.6 14.5 0.00 0.00 0.00 49 1012.8
20260507191543 18 0 0.0 17.7 0.00 0.00 0.00 50 1013.0
20260507190049 18 360 3.2 17.7 0.00 0.00 0.00 49 1013.3
20260507184547 18 360 4.8 16.1 0.00 0.00 0.00 48 1013.4
20260507183045 18 194 4.8 22.5 0.00 0.00 0.00 49 1013.7
20260507181543 18 360 1.6 17.7 0.00 0.00 0.00 51 1013.7
20260507180047 18 360 4.8 24.1 0.00 0.00 0.00 49 1014.1
20260507174547 18 360 6.4 16.1 0.00 0.00 0.00 50 1014.2
20260507173050 17 360 1.6 17.7 0.00 0.00 0.00 50 1014.3
20260507171558 17 360 1.6 16.1 0.00 0.00 0.00 52 1014.5
20260507170047 17 360 8.0 22.5 0.00 0.00 0.00 51 1014.9
20260507164542 17 360 3.2 19.3 0.00 0.00 0.00 53 1015.1
20260507163043 16 360 6.4 16.1 0.00 0.00 0.00 52 1015.2
20260507161547 16 360 6.4 19.3 0.00 0.00 0.00 52 1015.4
20260507160046 16 360 4.8 20.9 0.00 0.00 0.00 53 1015.4
20260507154550 16 360 6.4 20.9 0.00 0.00 0.00 53 1015.5
20260507153048 16 360 3.2 17.7 0.00 0.00 0.00 56 1015.6
20260507151544 15 360 3.2 14.5 0.00 0.00 0.00 58 1015.7
20260507150047 15 360 3.2 12.9 0.00 0.00 0.00 59 1015.8
20260507144611 14 360 3.2 12.9 0.00 0.00 0.00 60 1016.0
20260507143048 13 360 3.2 12.9 0.00 0.00 0.00 62 1015.9
20260507141610 13 360 4.8 16.1 0.00 0.00 0.00 62 1016.0
20260507140053 12 360 3.2 12.9 0.00 0.00 0.00 65 1016.0
20260507134549 12 360 1.6 12.9 0.00 0.00 0.00 69 1016.1
20260507133047 11 360 0.0 8.0 0.00 0.00 0.00 74 1016.0
20260507131548 10 0 0.0 6.4 0.00 0.00 0.00 79 1016.2
20260507130046 8 0 0.0 3.2 0.00 0.00 0.00 83 1016.5
20260507124553 7 0 0.0 3.2 0.00 0.00 0.00 86 1016.6
20260507123051 5 0 0.0 1.6 0.00 0.00 0.00 87 1016.5
20260507121552 4 0 0.0 0.0 0.00 0.00 0.00 86 1016.6
20260507120055 3 0 0.0 0.0 0.00 0.00 0.00 86 1016.3
20260507114558 3 0 0.0 0.0 0.00 0.00 0.00 85 1016.3
20260507113053 3 0 0.0 0.0 0.00 0.00 0.00 84 1016.3
20260507111552 3 0 0.0 0.0 0.00 0.00 0.00 84 1016.2
20260507110054 3 0 0.0 0.0 0.00 0.00 0.00 84 1016.2
20260507104556 4 0 0.0 0.0 0.00 0.00 0.00 84 1016.2
20260507103047 4 0 0.0 0.0 0.00 0.00 0.00 83 1016.2
20260507101550 4 0 0.0 0.0 0.00 0.00 0.00 83 1016.2
20260507100049 4 0 0.0 0.0 0.00 0.00 0.00 82 1016.2
20260507094550 4 0 0.0 0.0 0.00 0.00 0.00 82 1016.5
20260507093057 5 0 0.0 0.0 0.00 0.00 0.00 81 1016.5
20260507091548 5 0 0.0 0.0 0.00 0.00 0.00 81 1016.5
20260507090048 5 0 0.0 0.0 0.00 0.00 0.00 80 1016.5
20260507084551 5 0 0.0 0.0 0.00 0.00 0.00 79 1016.6
20260507083050 5 0 0.0 0.0 0.00 0.00 0.00 79 1016.7
20260507081548 5 0 0.0 0.0 0.00 0.00 0.00 79 1016.7
20260507080048 6 0 0.0 0.0 0.00 0.00 0.00 77 1016.6
20260507074549 6 0 0.0 0.0 0.00 0.00 0.00 77 1016.6
20260507073055 6 0 0.0 0.0 0.00 0.00 0.00 76 1016.8
20260507071552 6 0 0.0 0.0 0.00 0.00 0.00 75 1017.0
20260507070057 7 0 0.0 0.0 0.00 0.00 0.00 75 1017.1
20260507064551 7 0 0.0 0.0 0.00 0.00 0.00 74 1017.3
20260507063051 7 0 0.0 0.0 0.00 0.00 0.00 74 1017.3
20260507061544 7 0 0.0 0.0 0.00 0.00 0.00 74 1017.3
20260507060057 7 0 0.0 0.0 0.00 0.00 0.00 72 1017.4
20260507054551 7 0 0.0 0.0 0.00 0.05 0.00 71 1017.4
20260507053055 7 0 0.0 0.0 0.00 0.05 0.00 71 1017.4
20260507051545 7 0 0.0 0.0 0.00 0.05 0.00 70 1017.4
20260507050050 7 0 0.0 0.0 0.00 0.05 0.00 69 1017.4
20260507044558 7 0 0.0 0.0 0.00 0.05 0.05 68 1017.5
20260507043048 7 0 0.0 0.0 0.00 0.05 0.05 66 1017.4
20260507041550 7 0 0.0 0.0 0.00 0.05 0.05 64 1017.7
20260507040049 8 0 0.0 0.0 0.00 0.05 0.05 62 1017.6
20260507034551 8 0 0.0 0.0 0.00 0.05 0.05 60 1017.8
20260507033044 8 0 0.0 0.0 0.00 0.05 0.05 58 1017.5
20260507031543 9 0 0.0 0.0 0.00 0.05 0.05 57 1017.7
20260507030055 9 0 0.0 0.0 0.00 0.05 0.05 55 1017.6
20260507024556 10 0 0.0 0.0 0.00 0.05 0.05 53 1017.4
20260507023054 11 0 0.0 0.0 0.00 0.05 0.05 51 1017.4
20260507021556 11 0 0.0 0.0 0.00 0.05 0.05 49 1017.3
20260507020105 12 0 0.0 0.0 0.00 0.05 0.05 45 1017.2
20260507014554 13 0 0.0 0.0 0.00 0.05 0.05 42 1017.1
20260507013059 15 0 0.0 0.0 0.00 0.05 0.05 39 1017.1
20260507011559 15 0 0.0 0.0 0.00 0.05 0.05 34 1016.9
20260507010052 16 0 0.0 1.6 0.00 0.05 0.05 31 1016.9
20260507004549 16 0 0.0 3.2 0.00 0.05 0.05 30 1016.9
20260507003049 17 0 0.0 3.2 0.00 0.05 0.05 30 1016.8
20260507001544 17 0 0.0 4.8 0.00 0.05 0.05 29 1016.9
20260507000053 17 0 0.0 3.2 0.00 0.05 0.05 30 1016.8
20260506234554 17 0 0.0 6.4 0.00 0.05 0.05 28 1016.9
20260506233052 18 0 0.0 6.4 0.00 0.05 0.05 29 1016.8
20260506231551 18 340 0.0 3.2 0.00 0.05 0.05 29 1016.8
20260506230047 18 0 0.0 4.8 0.00 0.05 0.05 31 1016.7
20260506224603 17 0 0.0 3.2 0.00 0.05 0.05 33 1016.9
20260506223050 17 0 0.0 4.8 0.00 0.05 0.05 31 1017.0
20260506221555 16 0 0.0 6.4 0.00 0.05 0.05 31 1017.0
20260506220052 16 249 0.0 9.7 0.00 0.05 0.05 33 1017.0
20260506214601 16 0 3.2 11.3 0.00 0.05 0.05 31 1017.1